Tracking 31027 objects as of 19-Jul-2025
HD Live streaming from Space Station
objects crossing your sky now

COSMOS 371

Track COSMOS 371 now!
10-day predictions
COSMOS 371 is classified as:


NORAD ID: 4578
Int'l Code: 1970-083A
Perigee: 713.2 km
Apogee: 716.3 km
Inclination: 74.0 °
Period: 98.9 minutes
Semi major axis: 7085 km
RCS: 2.5963 m2 (large)
Launch date: October 12, 1970
Source: Commonwealth of Independent States (former USSR) (CIS)
Launch site: PLESETSK MISSILE AND SPACE COMPLEX (PKMTR)
Your satellite tracking list
FLOCK 3K 7
Track 1 satellite(s)




NASA's NSSDC Master Catalog

Two Line Element Set (TLE):
1 04578U 70083A   25199.40833519  .00000183  00000-0  48539-4 0  9996
2 04578  73.9977  87.6974 0002242 183.6405 176.4742 14.55539148897028
Source of the keplerian elements: AFSPC